Voltar ao catálogo

ONEWEB-0243

AtivoComunicaçõesPO
NORAD 48774·PAYLOAD·🇬🇧 United Kingdom

Lançado May 28, 2021 de Vostochny Cosmodrome

Loading…

Próximas Passagens (próximas 24 horas)

TLE

AtualizadoSource: CelesTrak SupGP

Época: Sep 14, 2026, 17:51 UTC

1 48774C 21045H   26257.74389306  .00001471  00000+0  39113-2 0  2572
2 48774  87.8973 241.3590 0002483  79.2420 315.8179 13.15542307    15

Acompanhe ONEWEB-0243 em tempo real com AllMySat

Download on the App Store